Regional Weather Roundup
Issued by NWS

Home | Current Version | Previous Version | Graphics & Text | Print | Product List | Glossary On
Versions: 1 2 3 4 5 6 7 8 9 10 11 12 13 14 15 16 17 18 19 20 21 22 23 24 25 26 27 28 29 30 31 32 33 34 35 36 37 38 39 40 41 42 43 44 45 46 47 48 49 50
000
ASUS43 KLOT 291606
RWRIL

ILLINOIS REGIONAL WEATHER ROUNDUP
NATIONAL WEATHER SERVICE CHICAGO/ROMEOVILLE IL
1000 AM CST THU JAN 29 2015

NOTE: "FAIR" INDICATES FEW OR NO CLOUDS BELOW 12,000 FEET WITH NO
SIGNIFICANT WEATHER AND/OR OBSTRUCTIONS TO VISIBILITY.

* THESE STATIONS ARE NOT UNDER NWS QUALITY CONTROL. THEY ALSO MAY NOT
  REPORT WEATHER SUCH AS PRECIPITATION OR FOG.

ILZ001-002-007-009-015-016-024-291700-
NORTHWEST ILLINOIS

CITY           SKY/WX    TMP DP  RH WIND       PRES   REMARKS
MOLINE         CLOUDY    35  29  78 NW15      30.03R WCI  25
STERLING*      CLOUDY    36  27  69 NW17G24   29.98R WCI  25
SAVANNA*       CLOUDY    35  28  76 NW14G22   30.00R WCI  26
$$

ILZ003-004-008-010-011-017-018-291700-
NORTH CENTRAL ILLINOIS

CITY           SKY/WX    TMP DP  RH WIND       PRES   REMARKS
ROCKFORD       CLOUDY    34  26  72 NW15      29.95R WCI  24
FREEPORT*      CLOUDY    32  27  81 NW16G29   29.98R WCI  21
ROCHELLE*      CLOUDY    33  28  83 NW18      29.94R WCI  21
DE KALB*       CLOUDY    32  26  80 NW20G26   29.90R WCI  20
PERU*          CLOUDY    35  31  85 NW24      29.96R HAZE    WCI  22
$$

ILZ005-006-012>014-019>023-291700-
NORTHEAST ILLINOIS

CITY           SKY/WX    TMP DP  RH WIND       PRES   REMARKS
CHICAGO-OHARE  CLOUDY    33  27  78 NW23      29.86R WCI  21
CHICAGO-MIDWAY CLOUDY    35  29  78 NW17G26   29.86R WCI  25
AURORA         CLOUDY    34  27  75 NW20G26   29.90R HAZE    WCI  23
LANSING*       CLOUDY    35  29  80 N13G29    29.84R WCI  26
JOLIET*        CLOUDY    33  29  82 NW10G20   29.90R HAZE    WCI  25
WAUKEGAN       LGT SNOW  32  26  78 NW14G25   29.86R WCI  22
DUPAGE AIRPORT LGT RAIN  34  27  75 NW21      29.88R WCI  22
KANKAKEE*      CLOUDY    34  31  86 NW16G29   29.88R WCI  24
WHEELING       CLOUDY    33  27  78 NW17G28   29.88R HAZE    WCI  22
MORRIS*        CLOUDY    34  31  89 NW13G21   29.90R FOG     WCI  25
ROMEOVILLE*    CLOUDY    33  29  82 NW18G30   29.88R HAZE    WCI  22
NORTHERLY ISL    N/A     34  28  79 NW13        N/A  WCI  25
$$

LMZ740>746-291700-
SOUTHERN LAKE MICHIGAN

STATION/POSITION SKY/WX   TEMP    WIND        PRES    VSBY  WAVE
                          AIR SEA DIR/SP/G                  HT/PER
                          (F)     (DEG/KT/KT) (MB)    (MI)  (FT/S)
WAUKEGAN HARBOR            33     320/ 17/ 22   N/A
HARRISON CRIB              33     320/ 21/ 24   N/A
BURNHAM HARBOR             34     290/ 15/ 24   N/A
CALUMET HARBOR             36     310/ 12/ 19   N/A
MICHIGAN CITY              34     310/ 27/ 32   N/A
$$

ILZ025>027-034>036-040-047-049-050-058-095>099-291700-
WEST-CENTRAL ILLINOIS

CITY           SKY/WX    TMP DP  RH WIND       PRES   REMARKS
QUINCY         CLOUDY    37  31  78 NW17G26   30.11R WCI  27
GALESBURG*     CLOUDY    35  31  87 NW20G26   30.03R WCI  24
MACOMB*        CLOUDY    36  32  86 NW21G29   30.09R WCI  25
JACKSONVILLE*  CLOUDY    39  32  74 NW20G25   30.06R WCI  30
PITTSFIELD*    CLOUDY    39  31  74 NW12G21   30.11R WCI  31
$$

ILZ028>032-037-038-041>044-048-051>054-059>061-291700-
CENTRAL ILLINOIS

CITY           SKY/WX    TMP DP  RH WIND       PRES   REMARKS
PONTIAC        CLOUDY    35  32  88 NW17G28   29.94R FOG     WCI  25
BLOOMINGTON    CLOUDY    35  31  86 NW23      29.97R FOG     WCI  23
DECATUR        CLOUDY    37  31  78 NW22G29   29.99R HAZE    WCI  26
PEORIA         CLOUDY    37  29  72 NW16G26   30.00R WCI  28
LACON*         CLOUDY    34  29  82 NW15G22   29.98R WCI  24
LINCOLN*       CLOUDY    38  32  80 NW8G18    30.01R WCI  32
SPRINGFIELD    CLOUDY    38  31  76 NW16G26   30.02R WCI  29
TAYLORVILLE    CLOUDY    36  32  87 NW22G31   30.02R WCI  24
$$

ILZ033-039-045-046-055>057-062-063-291700-
EAST-CENTRAL ILLINOIS

CITY           SKY/WX    TMP DP  RH WIND       PRES   REMARKS
CHAMPAIGN      CLOUDY    35  32  88 NW23G38   29.94R FOG     WCI  23
DANVILLE*      CLOUDY    35  32  88 W14G23    29.87R FOG     WCI  25
RANTOUL*       CLOUDY    36  32  87 NW21G33   29.92R FOG     WCI  25
MATTOON        CLOUDY    36  31  82 NW24      29.96R HAZE    WCI  24
PARIS*         CLOUDY    36  33  91 W23G30    29.93R FOG     WCI  24
$$

ILZ079-100>102-291700-
SOUTHWEST ILLINOIS

CITY           SKY/WX    TMP DP  RH WIND       PRES   REMARKS
ALTON          CLOUDY    39  30  70 NW20G29   30.08R WCI  30
BELLEVILLE     CLOUDY    41  32  72 NW15G23   30.08R
CAHOKIA*       CLOUDY    40  31  70 NW30G40   30.11R
SPARTA*        CLOUDY    40  32  72 NW16G26   30.10R
$$

ILZ064>066-069>071-074>076-080>082-084>086-088>090-092>094-291700-
SOUTH-CENTRAL ILLINOIS

CITY           SKY/WX    TMP DP  RH WIND       PRES   REMARKS
CARBONDALE     CLOUDY    43  33  68 NW24G35   30.09R
CAIRO*         PTSUNNY   55  42  61 N15       30.06R
EFFINGHAM*     CLOUDY    38  32  77 W16G23    30.02R WCI  29
MARION         CLOUDY    46  36  66 NW14G22   30.08R
MT. VERNON     CLOUDY    41  30  65 W8G21     30.06R
CENTRALIA*     CLOUDY    39  32  76 NW21G29   30.06R WCI  29
SALEM*         CLOUDY    41  35  77 W15G31    30.05R
METROPOLIS*    MOSUNNY   54  41  60 NW16G24   30.03R
$$

ILZ067-068-072-073-078-083-087-091-291700-
SOUTHEAST ILLINOIS

CITY           SKY/WX    TMP DP  RH WIND       PRES   REMARKS
LAWRENCEVILLE  CLOUDY    41  35  79 W17G31    29.99R HAZE
FLORA*         CLOUDY    40  35  82 W13G22    30.04R
FAIRFIELD*     CLOUDY    43  36  75 W9        30.04R
HARRISBURG*    CLOUDY    46  37  71 NW21G28   30.06R
ROBINSON*      CLOUDY    39  35  84 W20G29    29.98R FOG     WCI  30
CARMI*         CLOUDY    47  40  76 W17G26    30.03R
$$

ABBREVIATIONS USED IN REMARKS
   TC - TEMPERATURE IN CELSIUS
  WCI - WIND CHILL INDEX
   HX - HEAT INDEX
  VSB - VISIBILITY
$$




USA.gov is the U.S. government's official web portal to all federal, state and local government web resources and services.